Other Public Products
Issued by NWS Grand Forks, ND

Home | Current Version | Previous Version | Graphics & Text | Print | Product List | Glossary On
Versions: 1 2 3 4 5 6 7 8 9 10 11 12 13 14 15 16 17 18 19 20 21 22 23 24 25 26 27 28 29 30 31 32 33 34 35 36 37 38 39 40 41 42 43 44 45 46 47 48 49 50
470
FPUS83 KFGF 282210
OPUFGF
PRAIRIE TO PINES WEATHER ROUNDUP
NATIONAL WEATHER SERVICE EASTERN NORTH DAKOTA/GRAND FORKS ND
500 PM CDT SUN MAY 28 2017

 **SATELLITE DATA USED TO AUGMENT SKY COVER AT AUTOMATED STATIONS**
 *****  WEATHER ACROSS EASTERN NORTH DAKOTA  *****

CITY           SKY/WX    TMP DP  RH WIND       PRES   REMARKS
GRAND FORKS    PTSUNNY   62  50  64 N12       29.71F
GRAND FORKS AF PTSUNNY   62  47  59 N22G31    29.73R
GRAND CITY NWS NOT AVBL
BUXTON         NOT AVBL
DEVILS LAKE    CLOUDY    58  44  60 NW25G37   29.80R
FARGO          FAIR      65  49  56 NW15      29.74R
WAHPETON ARPT  FAIR      61  41  48 NW23G32   29.78R
$$

 *****  WEATHER ACROSS CENTRAL AND WESTERN NORTH DAKOTA  *****

CITY           SKY/WX    TMP DP  RH WIND       PRES   REMARKS
JAMESTOWN      CLOUDY    61  47  59 NW32G40   29.80R
BISMARCK       FAIR      73  34  23 NW23G45   29.86R
MINOT          CLOUDY    66  39  37 NW28      29.88S
MINOT AFB      FAIR      65  40  40 N30G41    29.87S
GARRISON         N/A     66  36  32 N38G46    29.89R
WILLISTON      PTSUNNY   70  33  25 NW25G33   29.99S
DICKINSON      FAIR      70  28  21 NW25G40   29.94R
HETTINGER      FAIR      73  33  23 NW33G40   29.96R
$$

 *****  OTHER OBSERVATIONS NORTHEAST NORTH DAKOTA  *****

CITY           SKY/WX    TMP DP  RH WIND       PRES   REMARKS
WALHALLA       NOT AVBL
LANGDON        CLOUDY    54  50  87 NW20      29.78R
CAVALIER       CLOUDY    55  48  76 NW18G26   29.74R
GRAFTON        MOCLDY    55  50  82 N20G29    29.75R
CANDO          NOT AVBL
FORT TOTTEN      N/A     56  45  67 NW13      29.95S
ROLLA          RAIN      52  50  93 N20G30    29.84R
RUGBY          NOT AVBL
 ***** THE ABOVE OBSERVATIONS ARE NON NWS ARE NOT QUALITY
        CONTROLLED AND MAY MIS-REPORT RAIN FOR SNOW...
$$

 *****  OTHER OBSERVATIONS SOUTHEAST NORTH DAKOTA *****

CITY           SKY/WX    TMP DP  RH WIND       PRES   REMARKS
COOPERSTOWN    MOCLDY    57  46  67 NW30G38   29.78S
VALLEY CITY    FAIR      61  48  63 NW23      29.80R
OAKES          NOT AVBL
GWINNER        MOCLDY    55  48  76 MISG      29.84R
SHEYENNE NWR     N/A     61  44  53 NW10      29.95S
BUFFALO        NOT AVBL
WYNDMERE         N/A     63  43  48 NW15        N/A
 ***** THE ABOVE OBSERVATIONS ARE NON NWS ARE NOT QUALITY
       CONTROLLED AND MAY MIS-REPORT RAIN FOR SNOW...
$$

  *****  WEATHER ACROSS NORTHERN MINNESOTA  *****

CITY           SKY/WX    TMP DP  RH WIND       PRES   REMARKS
FLAG ISLAND    HVY RAIN  55  50  82 W9        29.64S
WARROAD        PTSUNNY   59  48  67 W8G16     29.66S
ROSEAU         RAIN      54  48  82 NW13      29.68R
HALLOCK        PTSUNNY   61  46  59 NW21G31   29.71R
THF RVR FALLS  CLOUDY    59  49  69 W14       29.70S
HALSTAD          N/A     63  52  67 NW17        N/A
FOSSTON        FAIR      57  48  72 NW10G20   29.72S
BAUDETTE       CLOUDY    59  54  83 N8        29.64S
WASKISH        CLOUDY    61  48  63 W9        29.66S
CROOKSTON      PTSUNNY   59  54  82 NW9       29.72F
$$
  *****  WEATHER ACROSS CENTRAL AND WEST MINNESOTA  *****

CITY           SKY/WX    TMP DP  RH WIND       PRES   REMARKS
BEMIDJI        CLOUDY    58  45  60 W20G25    29.70S
PARK RAPIDS    LGT RAIN  52  44  74 N13       29.73R
WADENA         PTSUNNY   63  46  55 N24G36    29.74R
DETROIT LAKES  FAIR      55  46  71 N9        29.76S
MOORHEAD       FAIR      61  48  63 N10       29.77R
FERGUS FALLS   NOT AVBL
ELBOW LAKE     MOCLDY    67  41  38 NW18      29.74F
MORRIS MN      FAIR      72  39  30 NW20G25   29.74S
STAPLES        LGT RAIN  57  46  67 NW13G20   29.73R
WHEATON        RAIN      61  45  55 W40G52    29.81R
$$
  *****  WEATHER ELSEWHERE ACROSS MINNESOTA  *****

CITY           SKY/WX    TMP DP  RH WIND       PRES   REMARKS
DULUTH         PTSUNNY   63  48  58 NW14G25   29.65R
INTRNTL FALLS  LGT RAIN  57  50  77 NE5       29.61S
ELY            FAIR      54  52  94 W5        29.62F
CLOQUET        FAIR      61  46  59 W14G23    29.66F
BRAINERD       FAIR      64  47  53 NW9       29.70F
HIBBING        LGT RAIN  53  52  96 W8        29.65S
ALEXANDRIA     FAIR      67  44  43 NW10G26   29.75F
SAINT CLOUD    FAIR      67  48  50 W20G28    29.73S
MINNEAPOLIS    PTSUNNY   68  45  43 NW24G43   29.73R
$$

  *****  WEATHER ACROSS SOUTH DAKOTA  *****

CITY           SKY/WX    TMP DP  RH WIND       PRES   REMARKS
SIOUX FALLS    FAIR      74  43  32 NW21G26   29.86F
BROOKINGS      FAIR      70  41  34 NW17G26   29.84S
WATERTOWN      FAIR      67  44  43 NW20      29.83S
HURON          PTSUNNY   73  37  27 NW24G32   29.83F
SISSETON         N/A     57  50  77 N26G43    29.83R
ABERDEEN       FAIR      64  47  53 N15       29.84R
MITCHELL       FAIR      79  36  21 NW22      29.87F
PIERRE         PTSUNNY   67  42  40 NW24G33   29.94R
MOBRIDGE       FAIR      74  37  26 NW21G28   29.82F
RAPID CITY     PTSUNNY   73  38  27 NW35G51   30.04R
$$

  *****  SOME WEATHER IN NEARBY STATES *****

CITY           SKY/WX    TMP DP  RH WIND       PRES   REMARKS
GLASGOW MT     FAIR      74  27  17 NW23G37   30.08S
GREAT FALLS MT FAIR      73  42  32 NE17G23   30.22S
CHEYENNE WY    FAIR      65  34  31 N12       30.23F
SCOTTSBLUFF NE PTSUNNY   71  39  31 MISG      30.12S
OMAHA NE       FAIR      80  39  23 NW24G32   29.88R
DES MOINES IA  FAIR      81  44  27 W21G29    29.81S
DAVENPORT IA   FAIR      76  45  33 W18G29    29.78S
CHICAGO IL     FAIR      76  51  41 W13G23    29.73R
EAU CLAIRE WI  CLOUDY    66  47  50 NW10      29.70R
LA CROSSE WI   PTSUNNY   75  47  36 NW16      29.72S
$$

  *****  SOME NATIONAL WEATHER *****

CITY           SKY/WX    TMP DP  RH WIND       PRES   REMARKS
LA GUARDIA NY  CLOUDY    67  48  50 SE10      29.95R
RALEIGH NC     PTSUNNY   84  68  58 VRB3      29.81F
ATLANTA GA     PTSUNNY   84  65  52 W10G20    29.92R
NEW ORLEANS LA FAIR      87  72  60 SE14      29.95S HX  93
OKLAHOMA CITY  FAIR      82  46  28 N8        30.02F
ALBUQUERQUE NM FAIR      77  26  15 S7        30.17F
SALT LAKE CITY FAIR      78  35  21 N8        30.18F
LOS ANGELES CA FAIR      67  57  70 W16       30.00F
BOISE ID       FAIR      82  35  18 CALM      30.13F
SEATTLE WA     FAIR      83  49  30 N10       30.06F
$$

*** WEATHER ACROSS MANITOBA...SASKATCHEWAN AND ONTARIO ***
                ***ONTARIO***

CITY           SKY/WX    TMP DP  RH WIND       PRES   REMARKS
GERALDTON      CLOUDY    68  39  34 VRB2      29.60F
THUNDER BAY    PTSUNNY   55  46  71 NE9       29.61S
SIOUX LOOKOUT  PTSUNNY   61  46  59 SW7       29.60R
TORONTO        MOSUNNY   68  55  64 E12G17    29.73F
BIG TROUT LK   LGT RAIN  66  50  55 NW8       29.60R
PICKLE LAKE    NOT AVBL
DRYDEN         LGT RAIN  54  50  87 N6        29.60F
KENORA         PTSUNNY   59  46  63 NW7       29.63R
$$
                *** MANITOBA***

CITY           SKY/WX    TMP DP  RH WIND       PRES   REMARKS
BRANDON        CLOUDY    55  45  67 N26G33    29.83R
DAUPHIN        CLOUDY    55  48  76 N21G26    29.83S
ISLAND LAKE    CLOUDY    50  48  93 NW12      29.68R
PILOT MOUND      N/A     52  45  76 NW25G36     N/A
THE PAS        DRIZZLE   46  43  87 N14       29.89R
THOMPSON       LGT RAIN  41  39  93 N8        29.81R FOG
WINNIPEG       NOT AVBL
LYNN LAKE      CLOUDY    52  43  71 N17G23    29.92S
CHURCHILL      CLOUDY    36  34  93 NE15      29.85R
GILLAM         CLOUDY    39  37  93 N8        29.74S
$$
                ***SASKATCHEWAN***

CITY           SKY/WX    TMP DP  RH WIND       PRES   REMARKS
ESTEVAN        PTSUNNY   59  39  47 N35G40    29.95S
KINDERSLEY     MOSUNNY   64  30  27 N22G31    30.17S
LLOYDMINSTER   MOSUNNY   63  28  27 N16G28    30.20F
PRINCE ALBERT  PTSUNNY   61  41  48 N16G30    30.07S
REGINA         PTSUNNY   63  36  36 NW35G46   30.01S
YORKTON          N/A     54  45  71 N30G51    29.92R



USA.gov is the U.S. government's official web portal to all federal, state and local government web resources and services.